K0WOI Weather Reports


Display with metric or nautical units.
time (UTC)temp
F
wind
direction
speed
MPH
gust
MPH
rain 1hr
in
rain 24hr
in
rain mn
in
humidity
%
barometer
mb
20260904192838 87 104 0.0 0.0 0.00 0.00 0.00 77 1011.4
20260904192333 87 105 0.0 0.0 0.00 0.00 0.00 75 1011.0
20260904191830 87 105 0.0 0.0 0.00 0.00 0.00 74 1011.3
20260904191326 88 109 0.0 0.0 0.00 0.00 0.00 73 1011.6
20260904190823 88 111 0.0 0.0 0.00 0.00 0.00 72 1011.6
20260904190318 88 112 0.0 0.0 0.00 0.00 0.00 71 1011.6
20260904185814 89 112 0.0 0.0 0.00 0.00 0.00 70 1011.6
20260904185310 89 107 0.0 0.0 0.00 0.00 0.00 69 1011.9
20260904184809 90 118 0.0 0.0 0.00 0.00 0.00 69 1011.7
20260904184304 91 121 0.0 0.0 0.00 0.00 0.00 65 1011.5
20260904183759 91 115 0.0 0.0 0.00 0.00 0.00 67 1011.6
20260904183254 91 120 0.0 0.0 0.00 0.00 0.00 67 1011.8
20260904182749 91 113 0.0 0.0 0.00 0.00 0.00 65 1011.6
20260904182244 91 108 0.0 0.0 0.00 0.00 0.00 68 1011.7
20260904181740 90 108 0.0 0.0 0.00 0.00 0.00 67 1011.5
20260904181240 91 121 0.0 0.0 0.00 0.00 0.00 65 1011.6
20260904180735 91 116 0.0 0.0 0.00 0.00 0.00 65 1011.7
20260904180230 90 109 0.0 0.0 0.00 0.00 0.00 68 1011.6
20260904175729 90 115 0.0 0.0 0.00 0.00 0.00 69 1011.8
20260904175228 90 111 0.0 0.0 0.00 0.00 0.00 67 1011.7
20260904174723 90 110 0.0 0.0 0.00 0.00 0.00 67 1011.8
20260904174219 90 113 0.0 0.0 0.00 0.00 0.00 68 1011.7
20260904173714 89 117 0.0 0.0 0.00 0.00 0.00 70 1011.9
20260904173209 89 112 0.0 0.0 0.00 0.00 0.00 68 1011.8
20260904172706 89 111 2.0 5.0 0.00 0.00 0.00 69 1011.6
20260904172204 89 121 7.0 8.0 0.00 0.00 0.00 69 1011.9
20260904171700 89 108 1.0 2.0 0.00 0.00 0.00 70 1011.8
20260904171155 88 107 1.0 2.0 0.00 0.00 0.00 71 1011.7
20260904170651 88 106 0.0 1.0 0.00 0.00 0.00 70 1011.7
20260904170147 88 108 1.0 1.0 0.00 0.00 0.00 70 1011.9
20260904165645 88 112 3.0 3.0 0.00 0.00 0.00 70 1011.8
20260904165144 88 114 3.0 3.0 0.00 0.00 0.00 71 1011.6
20260904164640 88 107 2.0 2.0 0.00 0.00 0.00 70 1011.8
20260904164134 88 122 6.0 7.0 0.00 0.00 0.00 70 1011.8
20260904163630 87 109 1.0 1.0 0.00 0.00 0.00 72 1011.9
20260904163120 87 112 2.0 2.0 0.00 0.00 0.00 71 1012.1
20260904162620 87 113 3.0 3.0 0.00 0.00 0.00 70 1011.8
20260904162115 87 116 3.0 3.0 0.00 0.00 0.00 72 1012.1
20260904161610 86 107 1.0 2.0 0.00 0.00 0.00 72 1011.9
20260904161105 86 116 3.0 3.0 0.00 0.00 0.00 72 1011.8
20260904160600 86 106 2.0 2.0 0.00 0.00 0.00 72 1011.8
20260904160057 86 105 1.0 2.0 0.00 0.00 0.00 72 1011.7
20260904155556 86 106 1.0 2.0 0.00 0.00 0.00 73 1011.9
20260904155050 86 108 1.0 1.0 0.00 0.00 0.00 75 1012.0
20260904154544 84 117 3.0 5.0 0.00 0.00 0.00 75 1011.8
20260904154039 84 108 2.0 2.0 0.00 0.00 0.00 76 1011.7
20260904153538 85 110 3.0 5.0 0.00 0.00 0.00 74 1011.7
20260904153035 84 110 2.0 2.0 0.00 0.00 0.00 75 1011.6
20260904152530 84 113 4.0 6.0 0.00 0.00 0.00 75 1011.5
20260904152026 84 130 7.0 9.0 0.00 0.00 0.00 74 1011.6
20260904151520 84 127 5.0 6.0 0.00 0.00 0.00 76 1011.7
20260904151015 84 88 2.0 2.0 0.00 0.00 0.00 76 1011.6
20260904150515 84 88 2.0 2.0 0.00 0.00 0.00 77 1011.5
20260904150010 83 87 1.0 1.0 0.00 0.00 0.00 78 1011.6
20260904145504 83 88 4.0 7.0 0.00 0.00 0.00 76 1011.7
20260904144959 83 95 5.0 8.0 0.00 0.00 0.00 76 1011.8
20260904144455 82 88 3.0 3.0 0.00 0.00 0.00 78 1011.8
20260904143950 82 86 3.0 3.0 0.00 0.00 0.00 79 1011.7
20260904143446 81 88 3.0 5.0 0.00 0.00 0.00 81 1011.8
20260904142942 80 88 3.0 5.0 0.00 0.00 0.00 82 1011.7
20260904142439 80 84 1.0 2.0 0.00 0.00 0.00 84 1011.8
20260904141933 78 84 3.0 3.0 0.00 0.00 0.00 86 1011.6
20260904141428 78 83 0.0 1.0 0.00 0.00 0.00 87 1011.6
20260904140925 77 83 1.0 1.0 0.00 0.00 0.00 88 1011.6
20260904140425 77 82 0.0 1.0 0.00 0.00 0.00 89 1011.6
20260904135924 77 83 0.0 0.0 0.00 0.00 0.00 88 1011.5
20260904135424 77 83 0.0 0.0 0.00 0.00 0.00 88 1011.5
20260904134920 77 83 0.0 0.0 0.00 0.00 0.00 88 1011.7
20260904134420 77 83 0.0 0.0 0.00 0.00 0.00 87 1011.6
20260904133915 77 83 0.0 1.0 0.00 0.00 0.00 87 1011.6
20260904133415 77 83 1.0 1.0 0.00 0.00 0.00 87 1011.4
20260904132910 76 83 0.0 1.0 0.00 0.00 0.00 87 1011.4
20260904132405 76 83 0.0 1.0 0.00 0.00 0.00 88 1011.4
20260904131904 76 83 1.0 1.0 0.00 0.00 0.00 88 1011.5
20260904131400 76 83 1.0 1.0 0.00 0.00 0.00 88 1011.4
20260904130855 75 83 0.0 1.0 0.00 0.00 0.00 89 1011.5
20260904130354 75 83 1.0 1.0 0.00 0.00 0.00 90 1011.5
20260904125849 74 82 0.0 0.0 0.00 0.00 0.00 91 1011.6
20260904125346 74 82 0.0 1.0 0.00 0.00 0.00 91 1011.3
20260904124845 74 82 0.0 0.0 0.00 0.00 0.00 92 1011.7
20260904124342 74 82 0.0 0.0 0.00 0.00 0.00 92 1011.4
20260904123836 73 82 0.0 0.0 0.00 0.00 0.00 92 1011.2
20260904123332 73 82 0.0 0.0 0.00 0.00 0.00 92 1011.4
20260904122826 73 82 0.0 1.0 0.00 0.00 0.00 93 1011.3
20260904122321 73 82 0.0 0.0 0.00 0.00 0.00 94 1011.4
20260904121816 73 82 0.0 0.0 0.00 0.00 0.00 95 1011.3
20260904121312 72 83 0.0 0.0 0.00 0.00 0.00 95 1011.4
20260904120809 73 83 0.0 0.0 0.00 0.00 0.00 94 1011.0
20260904120304 73 83 0.0 0.0 0.00 0.00 0.00 94 1011.3
20260904115759 73 83 0.0 0.0 0.00 0.00 0.00 93 1011.5
20260904115254 73 83 0.0 0.0 0.00 0.00 0.00 92 1011.2
20260904114749 74 83 0.0 0.0 0.00 0.00 0.00 92 1011.3
20260904114248 74 83 0.0 1.0 0.00 0.00 0.00 91 1011.2
20260904113744 75 83 0.0 0.0 0.00 0.00 0.00 90 1011.2
20260904113243 75 83 0.0 0.0 0.00 0.00 0.00 88 1011.4
20260904112738 74 83 0.0 1.0 0.00 0.00 0.00 88 1011.0
20260904112233 74 83 0.0 0.0 0.00 0.00 0.00 89 1010.9
20260904111729 74 83 0.0 0.0 0.00 0.00 0.00 90 1010.9
20260904111225 74 83 0.0 0.0 0.00 0.00 0.00 89 1010.8
20260904110720 74 83 0.0 0.0 0.00 0.00 0.00 90 1010.7
20260904110219 74 83 1.0 1.0 0.00 0.00 0.00 90 1010.8
20260904105714 73 83 0.0 0.0 0.00 0.00 0.00 91 1010.6
20260904105209 73 83 0.0 0.0 0.00 0.00 0.00 91 1010.7
20260904104704 73 83 0.0 0.0 0.00 0.00 0.00 91 1010.8
20260904104200 73 83 0.0 0.0 0.00 0.00 0.00 91 1010.5
20260904103657 74 83 0.0 0.0 0.00 0.00 0.00 91 1010.6
20260904103151 74 82 0.0 0.0 0.00 0.00 0.00 90 1010.7
20260904102647 74 82 0.0 0.0 0.00 0.00 0.00 89 1010.9
20260904102142 74 82 0.0 0.0 0.00 0.00 0.00 88 1010.5
20260904101639 75 82 0.0 0.0 0.00 0.00 0.00 88 1010.8
20260904101134 75 82 0.0 0.0 0.00 0.00 0.00 87 1010.5
20260904100630 75 82 0.0 0.0 0.00 0.00 0.00 87 1010.6
20260904100125 75 82 0.0 0.0 0.00 0.00 0.00 87 1010.6
20260904095620 75 82 0.0 0.0 0.00 0.00 0.00 86 1010.4
20260904095120 75 82 0.0 0.0 0.00 0.00 0.00 86 1010.3
20260904094614 75 83 0.0 0.0 0.00 0.00 0.00 86 1010.4
20260904094109 75 83 0.0 0.0 0.00 0.00 0.00 86 1010.4
20260904093607 75 82 0.0 0.0 0.00 0.00 0.00 86 1010.4
20260904093101 75 82 0.0 0.0 0.00 0.00 0.00 86 1010.3
20260904092557 75 82 0.0 0.0 0.00 0.00 0.00 87 1010.3
20260904092053 75 83 0.0 0.0 0.00 0.00 0.00 87 1010.4
20260904091549 75 82 1.0 1.0 0.00 0.00 0.00 87 1010.3
20260904091048 76 82 0.0 0.0 0.00 0.00 0.00 86 1010.5
20260904090544 76 83 0.0 0.0 0.00 0.00 0.00 86 1010.3
20260904090040 76 83 1.0 1.0 0.00 0.00 0.00 85 1010.3
20260904085540 76 83 0.0 0.0 0.00 0.00 0.00 85 1010.3
20260904085034 76 83 1.0 2.0 0.00 0.00 0.00 85 1010.3
20260904084530 76 83 0.0 0.0 0.00 0.00 0.00 85 1010.2
20260904084026 76 83 1.0 2.0 0.00 0.00 0.00 85 1010.1
20260904083522 76 82 0.0 0.0 0.00 0.00 0.00 85 1010.1
20260904083017 76 82 1.0 1.0 0.00 0.00 0.00 85 1010.1
20260904082512 77 82 0.0 0.0 0.00 0.00 0.00 85 1010.4
20260904082007 77 82 0.0 1.0 0.00 0.00 0.00 85 1010.3
20260904081503 77 82 0.0 0.0 0.00 0.00 0.00 85 1010.3
20260904080958 77 82 0.0 0.0 0.00 0.00 0.00 85 1009.8
20260904080454 77 82 0.0 0.0 0.00 0.00 0.00 85 1010.0
20260904075949 77 82 1.0 1.0 0.00 0.00 0.00 85 1009.9
20260904075445 77 82 0.0 1.0 0.00 0.00 0.00 85 1009.9
20260904074944 77 82 0.0 1.0 0.00 0.00 0.00 85 1009.9
20260904074439 77 82 0.0 0.0 0.00 0.00 0.00 85 1010.0
20260904073934 77 82 1.0 1.0 0.00 0.00 0.00 85 1010.3
20260904073430 77 82 0.0 1.0 0.00 0.00 0.00 85 1010.2
20260904072925 77 82 1.0 1.0 0.00 0.00 0.00 85 1010.1
20260904072421 77 82 1.0 1.0 0.00 0.00 0.00 85 1010.1
20260904071916 77 82 1.0 1.0 0.00 0.00 0.00 85 1010.3
20260904071412 77 82 0.0 1.0 0.00 0.00 0.00 85 1010.2
20260904070906 77 82 0.0 1.0 0.00 0.00 0.00 85 1010.3
20260904070405 77 82 0.0 1.0 0.00 0.00 0.00 85 1010.2
20260904065905 77 82 0.0 1.0 0.00 0.00 0.00 86 1010.1
20260904065401 77 82 0.0 0.0 0.00 0.00 0.00 86 1010.1
20260904064901 77 82 1.0 1.0 0.00 0.00 0.00 86 1010.1
20260904064357 77 82 1.0 1.0 0.00 0.00 0.00 86 1010.3
20260904063852 77 82 0.0 1.0 0.00 0.00 0.00 86 1010.3
20260904063349 77 82 0.0 1.0 0.00 0.00 0.00 86 1010.5
20260904062844 77 82 1.0 1.0 0.00 0.00 0.00 86 1010.2
20260904062340 77 82 1.0 2.0 0.00 0.00 0.00 86 1010.2
20260904061835 77 82 1.0 2.0 0.00 0.00 0.00 87 1010.3
20260904061332 77 82 0.0 0.0 0.00 0.00 0.00 87 1010.3
20260904060827 77 82 0.0 0.0 0.00 0.00 0.00 87 1010.2
20260904060324 77 82 1.0 1.0 0.00 0.00 0.00 87 1010.4
20260904055818 77 82 1.0 1.0 0.00 0.00 0.00 87 1010.4
20260904055313 77 82 0.0 0.0 0.00 0.00 0.00 87 1010.2
20260904054809 77 82 0.0 0.0 0.00 0.00 0.00 87 1010.2
20260904054304 77 81 0.0 0.0 0.00 0.00 0.00 87 1010.0
20260904053754 77 81 0.0 1.0 0.00 0.00 0.00 87 1010.1
20260904053253 77 81 0.0 0.0 0.00 0.00 0.00 87 1010.3
20260904052750 77 81 1.0 1.0 0.00 0.00 0.00 87 1010.2
20260904052246 77 81 1.0 1.0 0.00 0.00 0.00 87 1010.2
20260904051742 77 81 0.0 1.0 0.00 0.00 0.00 88 1010.1
20260904051237 77 81 0.0 1.0 0.00 0.00 0.00 88 1010.1
20260904050732 77 81 0.0 0.0 0.00 0.00 0.00 88 1010.1
20260904050229 77 81 0.0 0.0 0.00 0.00 0.00 88 1010.1
20260904045729 77 81 0.0 1.0 0.00 0.00 0.00 88 1010.3
20260904045224 77 81 0.0 1.0 0.00 0.00 0.00 87 1010.3
20260904044718 77 81 0.0 0.0 0.00 0.00 0.00 87 1010.2
20260904044215 77 81 0.0 0.0 0.00 0.00 0.00 87 1010.5
20260904043711 77 81 0.0 0.0 0.00 0.00 0.00 86 1010.0
20260904043207 77 82 0.0 0.0 0.00 0.00 0.00 87 1010.2
20260904042703 77 81 0.0 0.0 0.00 0.00 0.00 86 1010.5
20260904042159 77 81 0.0 0.0 0.00 0.00 0.00 87 1010.1
20260904041653 77 81 0.0 1.0 0.00 0.00 0.00 87 1010.1
20260904041149 77 81 0.0 0.0 0.00 0.00 0.00 87 1010.4
20260904040645 77 81 0.0 0.0 0.00 0.00 0.00 86 1010.2
20260904040141 77 81 0.0 0.0 0.00 0.00 0.00 87 1010.2
20260904035636 77 81 0.0 0.0 0.00 0.00 0.00 87 1010.5
20260904035137 78 81 0.0 0.0 0.00 0.00 0.00 88 1010.4
20260904034636 78 81 0.0 0.0 0.00 0.00 0.00 87 1010.4
20260904034131 77 81 0.0 1.0 0.00 0.00 0.00 87 1010.5
20260904033627 77 81 0.0 0.0 0.00 0.00 0.00 89 1010.5
20260904033125 77 81 0.0 0.0 0.00 0.00 0.00 89 1010.5
20260904032620 77 81 0.0 0.0 0.00 0.00 0.00 90 1010.5
20260904032119 77 81 0.0 0.0 0.00 0.00 0.00 90 1010.3
20260904031618 77 81 0.0 0.0 0.00 0.00 0.00 90 1010.6
20260904031114 78 81 0.0 0.0 0.00 0.00 0.00 89 1010.2
20260904030610 78 81 0.0 0.0 0.00 0.00 0.00 88 1010.4
20260904030105 78 81 0.0 0.0 0.00 0.00 0.00 87 1010.5
20260904025601 80 81 0.0 0.0 0.00 0.00 0.00 86 1010.3
20260904025056 80 82 0.0 0.0 0.00 0.00 0.00 82 1010.1
20260904024551 80 82 0.0 0.0 0.00 0.00 0.00 81 1009.9
20260904024047 80 82 0.0 0.0 0.00 0.00 0.00 81 1010.1
20260904023543 81 82 0.0 0.0 0.00 0.00 0.00 80 1010.1
20260904023038 81 82 0.0 0.0 0.00 0.00 0.00 80 1010.0
20260904022533 81 82 0.0 0.0 0.00 0.00 0.00 80 1010.0
20260904022030 82 82 0.0 0.0 0.00 0.00 0.00 79 1010.0
20260904021525 82 82 0.0 0.0 0.00 0.00 0.00 78 1009.8
20260904021020 82 83 0.0 0.0 0.00 0.00 0.00 78 1009.7
20260904020521 82 83 1.0 1.0 0.00 0.00 0.00 77 1009.7
20260904020015 82 83 1.0 1.0 0.00 0.00 0.00 77 1009.6
20260904015510 82 83 0.0 1.0 0.00 0.00 0.00 77 1009.8
20260904015008 82 83 1.0 1.0 0.00 0.00 0.00 77 1009.6
20260904014503 83 83 1.0 1.0 0.00 0.00 0.00 77 1009.5
20260904013959 83 83 0.0 1.0 0.00 0.00 0.00 77 1009.4
20260904013454 83 83 0.0 1.0 0.00 0.00 0.00 77 1009.3
20260904012951 83 83 0.0 0.0 0.00 0.00 0.00 77 1009.5
20260904012450 83 83 1.0 1.0 0.00 0.00 0.00 76 1009.5
20260904011945 83 83 0.0 0.0 0.00 0.00 0.00 76 1009.3
20260904011440 84 83 0.0 1.0 0.00 0.00 0.00 76 1009.2
20260904010935 84 83 0.0 0.0 0.00 0.00 0.00 76 1009.3
20260904010431 84 83 0.0 0.0 0.00 0.00 0.00 75 1009.1
20260904005925 84 83 0.0 0.0 0.00 0.00 0.00 75 1009.2
20260904005416 84 83 0.0 0.0 0.00 0.00 0.00 75 1009.2
20260904004916 85 83 0.0 0.0 0.00 0.00 0.00 74 1009.2
20260904004412 85 83 1.0 1.0 0.00 0.00 0.00 74 1009.1
20260904003907 85 83 0.0 0.0 0.00 0.00 0.00 73 1009.1
20260904003403 86 83 0.0 0.0 0.00 0.00 0.00 73 1009.2
20260904002857 86 83 0.0 1.0 0.00 0.00 0.00 72 1009.3
20260904002354 86 84 1.0 1.0 0.00 0.00 0.00 71 1009.2
20260904001853 87 84 0.0 1.0 0.00 0.00 0.00 71 1009.2
20260904001349 87 84 0.0 0.0 0.00 0.00 0.00 70 1009.3
20260904000843 87 84 0.0 1.0 0.00 0.00 0.00 69 1009.2
20260904000343 88 84 0.0 0.0 0.00 0.00 0.00 69 1009.4
20260903235843 88 84 1.0 1.0 0.00 0.00 0.00 69 1009.1
20260903235339 89 84 0.0 0.0 0.00 0.00 0.00 68 1009.2
20260903234838 89 84 0.0 1.0 0.00 0.00 0.00 66 1009.1
20260903234335 89 84 1.0 1.0 0.00 0.00 0.00 66 1009.1
20260903233831 90 84 1.0 2.0 0.00 0.00 0.00 64 1009.2
20260903233326 90 84 1.0 1.0 0.00 0.00 0.00 64 1009.1
20260903232825 90 85 1.0 2.0 0.00 0.00 0.00 64 1009.3
20260903232321 91 84 1.0 1.0 0.00 0.00 0.00 63 1009.2
20260903231820 91 84 1.0 1.0 0.00 0.00 0.00 62 1009.1
20260903231316 91 85 1.0 1.0 0.00 0.00 0.00 63 1009.0
20260903230811 92 85 0.0 1.0 0.00 0.00 0.00 63 1009.3
20260903230306 92 85 1.0 1.0 0.00 0.00 0.00 62 1009.2
20260903225802 93 84 1.0 1.0 0.00 0.00 0.00 61 1009.0
20260903225258 93 85 1.0 2.0 0.00 0.00 0.00 61 1008.9
20260903224755 93 85 1.0 1.0 0.00 0.00 0.00 60 1008.8
20260903224250 94 85 1.0 2.0 0.00 0.00 0.00 58 1009.0
20260903223745 93 85 2.0 2.0 0.00 0.00 0.00 58 1009.0
20260903223243 93 85 1.0 2.0 0.00 0.00 0.00 56 1009.0
20260903222739 94 85 2.0 2.0 0.00 0.00 0.00 57 1008.9
20260903222238 93 86 3.0 3.0 0.00 0.00 0.00 56 1009.0
20260903221733 94 84 2.0 3.0 0.00 0.00 0.00 55 1008.8
20260903221231 94 85 0.0 0.0 0.00 0.00 0.00 58 1009.3
20260903220730 94 85 2.0 3.0 0.00 0.00 0.00 56 1009.0
20260903220225 94 85 2.0 2.0 0.00 0.00 0.00 57 1009.0
20260903215718 93 86 1.0 2.0 0.00 0.00 0.00 59 1008.9
20260903215214 94 85 3.0 5.0 0.00 0.00 0.00 58 1008.9
20260903214712 94 92 5.0 6.0 0.00 0.00 0.00 58 1009.3
20260903214209 94 86 3.0 5.0 0.00 0.00 0.00 57 1009.0
20260903213703 94 85 2.0 3.0 0.00 0.00 0.00 56 1009.1
20260903213159 93 85 2.0 3.0 0.00 0.00 0.00 57 1009.0
20260903212654 94 85 2.0 3.0 0.00 0.00 0.00 57 1009.2
20260903212150 94 84 2.0 2.0 0.00 0.00 0.00 59 1009.1
20260903211644 94 85 3.0 5.0 0.00 0.00 0.00 58 1009.1
20260903211141 94 85 2.0 2.0 0.00 0.00 0.00 61 1009.4
20260903210636 94 85 3.0 3.0 0.00 0.00 0.00 61 1009.4
20260903210132 95 84 1.0 2.0 0.00 0.00 0.00 64 1009.5
20260903205631 94 84 1.0 1.0 0.00 0.00 0.00 61 1009.4
20260903205130 94 84 1.0 2.0 0.00 0.00 0.00 66 1009.5
20260903204626 93 84 3.0 5.0 0.00 0.00 0.00 62 1009.3
20260903204122 93 84 2.0 2.0 0.00 0.00 0.00 69 1009.4
20260903203618 93 86 2.0 5.0 0.00 0.00 0.00 64 1009.8
20260903203112 93 84 1.0 1.0 0.00 0.00 0.00 66 1009.5
20260903202607 93 83 2.0 2.0 0.00 0.00 0.00 70 1010.0
20260903202103 92 83 1.0 2.0 0.00 0.00 0.00 69 1009.7
20260903201557 92 84 2.0 2.0 0.00 0.00 0.00 71 1009.8
20260903201056 91 83 1.0 2.0 0.00 0.00 0.00 75 1009.8
20260903200552 90 83 1.0 1.0 0.00 0.00 0.00 76 1009.9
20260903200046 90 83 1.0 2.0 0.00 0.00 0.00 78 1010.1
20260903195543 89 83 1.0 1.0 0.00 0.00 0.00 80 1010.2
20260903195038 89 82 0.0 1.0 0.00 0.00 0.00 82 1010.3
20260903194533 88 83 2.0 2.0 0.00 0.00 0.00 81 1010.3
20260903194028 87 83 2.0 3.0 0.00 0.00 0.00 82 1010.3
20260903193524 86 83 2.0 2.0 0.00 0.00 0.00 84 1010.4